[[{"header":{"parameterUnit":"m.s-1","parameterCategory":2,"la1":30.2991,"la2":30.254,"lo1":-89.0895,"lo2":-89.0444,"dy":0.0017,"dx":0.0017,"nx":28,"ny":28,"refTime":"2025-06-23T03:00:00:Z","depth":"0","parameterNumber":2,"parameterNumberName":"U-component_of_CURRENTS"},"data":[0,0,0,0,0,0,0,0,0,0,0,0,0,0,0,0,0,0,0,0,0,0,0,0,0,0,0,0,0,0,0,0,0,0,0,0,0,0,0,0,0,0,0,0,0,0,0,0,0,0,0,0,0,0,0,0,0,0,0.3598,0.3599,0,0.3667,0.3668,0.3669,0.3673,0.3672,0.3672,0.3671,0.3693,0.3694,0.3695,0,0,0,0,0,0,0,0,0,0,0,0,0,0.3486,0.3488,0.3598,0.3599,0.36,0.3667,0.3668,0.3669,0.3673,0.3672,0.3671,0.3671,0.3692,0.3694,0.3695,0,0,0,0,0,0,0,0,0,0,0,0,0,0.3542,0.3489,0.3598,0.3612,0.3614,0.3667,0.3668,0.3669,0.3673,0.3672,0.3671,0.367,0.3692,0.3694,0.3695,0.3725,0,0,0.3701,0.3702,0,0,0,0,0,0,0,0,0.3538,0.3545,0.3609,0.3611,0.3613,0.3662,0.3637,0.3686,0.3673,0.3649,0.3671,0.367,0.368,0.3683,0.3696,0.3726,0.3727,0.3701,0.3702,0.3703,0.3703,0,0,0,0,0,0,0,0.3535,0.3543,0.3624,0.361,0.3613,0.362,0.3626,0.3646,0.3667,0.3651,0.3652,0.3662,0.368,0.3694,0.3696,0.3728,0.3701,0.3702,0.3704,0.3704,0.3816,0.3818,0,0,0,0,0,0,0.353,0.3539,0.3622,0.3626,0.3574,0.3623,0.363,0.3646,0.3668,0.3671,0.3663,0.3662,0.3692,0.3694,0.3697,0.3758,0.3703,0.3704,0.3705,0.3814,0.3817,0.3819,0,0,0,0,0,0,0.3527,0.3537,0.3619,0.3585,0.3596,0.3626,0.3644,0.3648,0.3664,0.3678,0.3679,0.3675,0.3691,0.3695,0.3722,0.3758,0.3705,0.3707,0.3812,0.3815,0.3818,0.3864,0,0,0,0,0,0,0.3524,0.3536,0.3548,0.3585,0.3598,0.3664,0.3645,0.365,0.3673,0.3673,0.3689,0.369,0.3691,0.372,0.3724,0.3759,0.3708,0.381,0.3813,0.3817,0.386,0.3868,0.3875,0,0,0,0,0,0.352,0.3541,0.3549,0.3559,0.3614,0.3665,0.3674,0.3689,0.3674,0.3697,0.37,0.369,0.3746,0.3723,0.3727,0.3763,0.3808,0.3812,0.3816,0.3857,0.3866,0.3875,0,0,0,0,0,0,0.3502,0.3545,0.3554,0.3588,0.363,0.3667,0.3688,0.3694,0.3716,0.3711,0.3709,0.3712,0.3754,0.3754,0.3728,0.3809,0.3778,0.3783,0.3807,0.3816,0.3824,0.3858,0.371,0,0,0,0,0,0.3505,0.3529,0.3576,0.3605,0.3626,0.3657,0.3678,0.3693,0.3717,0.3725,0.3733,0.3749,0.3778,0.3789,0.3814,0.3852,0.3905,0.3882,0.3889,0.3896,0.3929,0.4041,0.4063,0.3833,0.3833,0.3833,0,0,0.3506,0.3533,0.3547,0.3602,0.3632,0.3676,0.3667,0.3709,0.3748,0.3724,0.3768,0.3776,0.3795,0.3842,0.3861,0.3843,0.3988,0.3901,0.3906,0.3937,0.4048,0.4071,0.4091,0.3836,0.3835,0.3835,0,0,0.3519,0.3547,0.3571,0.3612,0.3665,0.3692,0.3706,0.375,0.3773,0.3813,0.3814,0.3849,0.3872,0.3911,0.3927,0.3994,0.4025,0.3993,0.4057,0.4165,0.4185,0.4204,0.4295,0.4321,0.3994,0.3994,0.3994,0,0.3514,0.3555,0.3589,0.363,0.3666,0.37,0.3743,0.3784,0.383,0.3865,0.3831,0.392,0.3915,0.4012,0.4023,0.4014,0.4076,0.4015,0.4177,0.4196,0.4214,0.4303,0.4331,0.3997,0.3997,0.3996,0.3996,0,0.3549,0.3588,0.361,0.3671,0.3719,0.3762,0.3826,0.387,0.3885,0.3926,0.4014,0.4028,0.4089,0.4085,0.4064,0.4198,0.4199,0.4174,0.4154,0.4241,0.4328,0.4357,0.4001,0.4,0.3999,0.3998,0,0,0.3515,0.3611,0.3618,0.3655,0.3742,0.3783,0.3864,0.3952,0.401,0.4063,0.4158,0.4197,0.4222,0.4246,0.4249,0.4323,0.4474,0.43,0.4304,0.4391,0.4721,0.4645,0.4669,0.448,0.4485,0.449,0.4727,0,0.3526,0.3601,0.365,0.3726,0.3775,0.3843,0.3917,0.4006,0.4068,0.4171,0.4244,0.4328,0.4285,0.4318,0.4396,0.4461,0.4555,0.4413,0.4624,0.4631,0.4555,0.4702,0.4483,0.4671,0.4756,0.4761,0.4764,0,0.3541,0.3591,0.3666,0.3763,0.379,0.3841,0.3966,0.4036,0.4196,0.4254,0.4377,0.4445,0.4594,0.4526,0.4737,0.4652,0.4704,0.4741,0.4751,0.4692,0.4611,0.46,0.472,0.457,0.4809,0.4805,0.4802,0,0.351,0.3599,0.3655,0.3691,0.3811,0.3856,0.3915,0.4057,0.4155,0.433,0.4437,0.4603,0.4709,0.4828,0.491,0.4847,0.5131,0.5052,0.5048,0.5042,0.4906,0.4878,0.4908,0.5225,0.5224,0.5224,0.5223,0,0.3515,0.3559,0.3639,0.3679,0.3756,0.3833,0.3945,0.4028,0.4203,0.4338,0.4485,0.464,0.479,0.4963,0.501,0.514,0.5231,0.5116,0.5123,0.4911,0.4883,0.4783,0.4721,0.5232,0.523,0.5229,0.5227,0,0.3505,0.3552,0.3625,0.3723,0.3753,0.3811,0.397,0.4054,0.4212,0.4406,0.4486,0.4731,0.4945,0.5096,0.5287,0.5265,0.5239,0.5398,0.5132,0.5102,0.4901,0.485,0.4804,0.466,0.5446,0.5446,0.5446,0,0.3518,0.3554,0.3648,0.3687,0.3734,0.3828,0.3899,0.4051,0.4146,0.4452,0.4542,0.483,0.5,0.5283,0.5308,0.5438,0.5275,0.5281,0.5108,0.4914,0.4864,0.4678,0.4546,0.4952,0.4948,0.4944,0.4942,0,0.3556,0.3582,0.3638,0.3694,0.3758,0.3831,0.3926,0.401,0.4189,0.4366,0.4565,0.4736,0.5017,0.5058,0.523,0.5255,0.5003,0.5213,0.5096,0.4572,0.4294,0.4147,0.4765,0.4912,0.4915,0.4917,0.4918,0.492,0.3581,0.361,0.3653,0.3696,0.3747,0.376,0.3778,0.3892,0.402,0.4189,0.4435,0.4589,0.4776,0.4982,0.499,0.4827,0.4824,0.4659,0.4649,0.4505,0.4245,0.4795,0.4881,0.4884,0.4886,0.4888,0.489,0,0.358,0.3597,0.3645,0.3652,0.3634,0.3685,0.3736,0.3714,0.3767,0.3987,0.4141,0.4298,0.4378,0.4492,0.4458,0.4282,0.4064,0.4156,0.3835,0.3759,0.4334,0.4185,0.4021,0.4021,0.4021,0.4021,0.4021,0.4021,0.3584,0.3591,0.3583,0.3512,0.3502,0.3408,0.3391,0.3386,0.3468,0.354,0.3617,0.3792,0.4039,0.416,0.4001,0.3882,0.3562,0.3401,0.3416,0.3803,0.3847,0.3888,0.3732,0.3475,0.3475,0.264,0.2633,0.2629]},{"header":{"parameterUnit":"m.s-1","parameterCategory":2,"la1":30.2991,"la2":30.254,"lo1":-89.0895,"lo2":-89.0444,"dy":0.0017,"dx":0.0017,"nx":28,"ny":28,"refTime":"2025-06-23T03:00:00:Z","depth":"0","parameterNumber":3,"parameterNumberName":"V-component_of_CURRENTS"},"data":[0,0,0,0,0,0,0,0,0,0,0,0,0,0,0,0,0,0,0,0,0,0,0,0,0,0,0,0,0,0,0,0,0,0,0,0,0,0,0,0,0,0,0,0,0,0,0,0,0,0,0,0,0,0,0,0,0,0,0.0106,0.0106,0,0.0046,0.0045,0.0044,0.0001,0.0,0.0,-0.0,-0.0084,-0.0086,-0.0088,0,0,0,0,0,0,0,0,0,0,0,0,0,0.0147,0.0147,0.0106,0.0106,0.0105,0.0046,0.0045,0.0044,0.0001,0.0,-0.0,-0.0,-0.0083,-0.0086,-0.0088,0,0,0,0,0,0,0,0,0,0,0,0,0,0.0112,0.0147,0.0106,0.0077,0.0074,0.0046,0.0045,0.0044,0.0001,0.0,-0.0,-0.0,-0.0082,-0.0085,-0.0088,-0.0098,0,0,-0.0097,-0.0099,0,0,0,0,0,0,0,0,0.0114,0.011,0.0082,0.0079,0.0075,0.0031,0.0029,-0.0005,0.0001,0.0027,-0.0,-0.0001,-0.0047,-0.0053,-0.0064,-0.0102,-0.0106,-0.0098,-0.0099,-0.0101,-0.0101,0,0,0,0,0,0,0,0.0116,0.0112,0.0081,0.0081,0.0077,0.0054,0.0049,0.0022,-0.0008,0.0025,0.0022,0.0017,-0.0049,-0.0061,-0.0066,-0.0107,-0.0097,-0.01,-0.0102,-0.0103,-0.015,-0.0149,0,0,0,0,0,0,0.0128,0.0115,0.0083,0.008,0.0095,0.0054,0.0048,0.0045,-0.0007,-0.0015,0.0017,0.0015,-0.0056,-0.0063,-0.007,-0.0059,-0.0101,-0.0103,-0.0105,-0.015,-0.0149,-0.0149,0,0,0,0,0,0,0.0129,0.0126,0.0086,0.0096,0.009,0.0054,0.0051,0.0044,0.0035,-0.0013,-0.0021,0.0016,-0.0056,-0.0065,-0.0082,-0.0064,-0.0105,-0.0107,-0.0151,-0.015,-0.0149,-0.0054,0,0,0,0,0,0,0.0131,0.0127,0.0131,0.0097,0.009,0.0081,0.0051,0.0043,0.0033,0.0029,-0.0017,-0.0025,-0.0057,-0.0077,-0.0085,-0.0068,-0.011,-0.0151,-0.015,-0.0149,-0.0058,-0.005,-0.0044,0,0,0,0,0,0.0132,0.0148,0.0131,0.0128,0.0096,0.0081,0.0076,0.0048,0.0033,0.0036,0.0007,-0.0024,-0.0077,-0.0079,-0.0088,-0.0072,-0.0152,-0.0151,-0.0149,-0.0061,-0.0052,-0.0044,0,0,0,0,0,0,0.0171,0.0144,0.0125,0.0132,0.0111,0.0075,0.0077,0.0055,0.0033,0.0031,-0.0016,-0.0025,-0.0034,-0.0068,-0.0069,-0.0084,-0.012,-0.012,-0.005,-0.0041,-0.0034,0.0003,-0.0112,0,0,0,0,0,0.0181,0.0182,0.015,0.0155,0.0149,0.0113,0.0104,0.0085,0.006,0.005,0.0016,-0.0017,-0.0037,-0.005,-0.0078,-0.0084,-0.0092,-0.0081,-0.0074,-0.0067,-0.0044,-0.0034,-0.0023,-0.0145,-0.0145,-0.0145,0,0,0.0196,0.0182,0.0182,0.0163,0.0144,0.0151,0.0107,0.0101,0.0111,0.0044,0.0047,0.0007,-0.0034,-0.0039,-0.0046,-0.0063,-0.004,-0.0066,-0.006,-0.004,-0.0031,-0.0019,-0.0008,-0.0144,-0.0144,-0.0144,0,0,0.0237,0.0216,0.0235,0.0223,0.0203,0.0183,0.0186,0.0153,0.0144,0.0133,0.0095,0.0076,0.0028,0.0016,0.0001,0.0032,-0.0002,0.001,0.0079,0.0088,0.0099,0.0109,0.0109,0.0118,0.0014,0.0014,0.0014,0,0.026,0.0279,0.0238,0.0255,0.0261,0.0205,0.0235,0.0216,0.0182,0.0193,0.0147,0.0118,0.0063,0.0093,0.0085,0.0053,0.0046,0.0051,0.0101,0.011,0.0118,0.0116,0.0125,0.0019,0.0019,0.0018,0.0018,0,0.0314,0.0331,0.0343,0.0347,0.0344,0.0361,0.0332,0.033,0.0303,0.0286,0.0297,0.0233,0.0228,0.019,0.0136,0.0172,0.0144,0.0111,0.0087,0.0137,0.013,0.0138,0.0026,0.0024,0.0023,0.0022,0,0,0.037,0.0384,0.0388,0.0425,0.0401,0.042,0.0431,0.0448,0.0495,0.0433,0.0505,0.0418,0.0391,0.0372,0.0314,0.0294,0.0313,0.0221,0.0219,0.0236,0.0332,0.0286,0.0288,0.0287,0.0289,0.0291,0.0303,0,0.0433,0.0504,0.0481,0.0557,0.06,0.0562,0.0591,0.0593,0.0582,0.063,0.0573,0.0606,0.0462,0.0479,0.0433,0.0359,0.0337,0.0313,0.0268,0.0267,0.0233,0.0297,0.0249,0.0254,0.031,0.0311,0.0312,0,0.0501,0.0546,0.0629,0.0702,0.0718,0.0743,0.0811,0.0836,0.0859,0.086,0.0865,0.0827,0.0808,0.0683,0.0583,0.0573,0.046,0.0379,0.0377,0.0312,0.0236,0.0212,0.0265,0.004,0.0323,0.0322,0.0321,0,0.0592,0.0661,0.0742,0.0759,0.0811,0.0851,0.0884,0.0907,0.0985,0.1033,0.1109,0.1049,0.1068,0.0924,0.0717,0.0666,0.0607,0.0527,0.0383,0.0378,0.0319,0.0306,0.0166,0.0468,0.0468,0.0468,0.0468,0,0.0683,0.076,0.0796,0.0845,0.0975,0.0961,0.1105,0.112,0.1206,0.1345,0.1254,0.1361,0.1125,0.1051,0.0829,0.064,0.0699,0.0422,0.0391,0.0347,0.0337,0.0122,-0.0008,0.0468,0.0468,0.0468,0.0468,0,0.0788,0.0798,0.0918,0.0989,0.1021,0.1122,0.1267,0.1381,0.1422,0.1613,0.1654,0.1621,0.1528,0.1279,0.106,0.0813,0.0485,0.0533,0.0488,0.045,0.009,-0.0033,-0.0191,-0.0283,0.0398,0.0397,0.0397,0,0.0856,0.0919,0.1035,0.1124,0.1164,0.1308,0.1417,0.1489,0.1622,0.1788,0.1903,0.1874,0.189,0.1545,0.1104,0.0749,0.0505,0.0444,0.0326,0.0089,-0.007,-0.0165,-0.0237,0.028,0.0279,0.0277,0.0276,0,0.1007,0.1033,0.1129,0.1285,0.1413,0.1585,0.1738,0.1874,0.199,0.2149,0.2318,0.2352,0.2022,0.1632,0.1105,0.0828,0.0269,0.0406,0.0181,-0.0147,-0.0276,-0.0385,0.0243,0.0264,0.0266,0.0267,0.0267,0.0268,0.1125,0.1217,0.1314,0.1473,0.1622,0.181,0.1968,0.2152,0.2379,0.2607,0.2611,0.2679,0.2069,0.1356,0.0967,0.0171,0.0203,-0.0086,-0.0204,-0.0268,-0.0396,0.0204,0.0172,0.0173,0.0173,0.0174,0.0174,0,0.1255,0.1341,0.1498,0.1669,0.1842,0.1889,0.2147,0.2314,0.2584,0.2789,0.2933,0.2617,0.1922,0.1189,0.0123,-0.0372,-0.0554,-0.0633,-0.0794,-0.0829,-0.0277,-0.0324,-0.0489,-0.0488,-0.0488,-0.0488,-0.0488,-0.0487,0.1326,0.1472,0.1532,0.1804,0.1935,0.2156,0.2304,0.2562,0.2742,0.2955,0.2951,0.2924,0.2249,0.0482,-0.0685,-0.0929,-0.1255,-0.1349,-0.1459,-0.1126,-0.1085,-0.1046,-0.1121,-0.1449,-0.1451,-0.1971,-0.1977,-0.1981]}],[{"header":{"parameterUnit":"m.s-1","parameterCategory":2,"la1":30.2991,"la2":30.254,"lo1":-89.0895,"lo2":-89.0444,"dy":0.0017,"dx":0.0017,"nx":28,"ny":28,"refTime":"2025-06-23T03:00:00:Z","depth":"2","parameterNumber":2,"parameterNumberName":"U-component_of_CURRENTS"},"data":[0,0,0,0,0,0,0,0,0,0,0,0,0,0,0,0,0,0,0,0,0,0,0,0,0,0,0,0,0,0,0,0,0,0,0,0,0,0,0,0,0,0,0,0,0,0,0,0,0,0,0,0,0,0,0,0,0,0,0.3015,0.3016,0,0.3094,0.3094,0.3095,0.3113,0.3112,0.3112,0.3112,0.3154,0.3156,0.3157,0,0,0,0,0,0,0,0,0,0,0,0,0,0.293,0.2931,0.3015,0.3016,0.3018,0.3094,0.3094,0.3095,0.3113,0.3112,0.3112,0.3112,0.3154,0.3156,0.3157,0,0,0,0,0,0,0,0,0,0,0,0,0,0.2981,0.2931,0.3015,0.3038,0.3041,0.3093,0.3094,0.3095,0.3113,0.3112,0.3112,0.3111,0.3153,0.3156,0.3158,0.3179,0,0,0.3164,0.3165,0,0,0,0,0,0,0,0,0.2978,0.2983,0.3033,0.3036,0.304,0.3095,0.308,0.3123,0.3113,0.3082,0.3112,0.3111,0.3134,0.3137,0.3149,0.3181,0.3183,0.3164,0.3166,0.3166,0.3167,0,0,0,0,0,0,0,0.2974,0.298,0.3043,0.3035,0.3039,0.3061,0.3067,0.3088,0.3107,0.3085,0.3087,0.3101,0.3135,0.3147,0.3151,0.3184,0.3164,0.3166,0.3167,0.3168,0.327,0.3271,0,0,0,0,0,0,0.2968,0.2977,0.3041,0.3046,0.301,0.3063,0.3069,0.3076,0.3107,0.3113,0.3101,0.3101,0.3144,0.3148,0.3152,0.322,0.3166,0.3168,0.317,0.3268,0.327,0.3272,0,0,0,0,0,0,0.2966,0.2973,0.3038,0.3016,0.3026,0.3065,0.3072,0.3078,0.311,0.312,0.3124,0.313,0.3144,0.3149,0.3186,0.322,0.3169,0.3171,0.3267,0.3269,0.3271,0.333,0,0,0,0,0,0,0.2963,0.2971,0.2985,0.3015,0.3027,0.3086,0.3073,0.3079,0.3119,0.3121,0.3147,0.3149,0.3144,0.3183,0.3188,0.3222,0.3173,0.3265,0.3268,0.327,0.3326,0.3334,0.3341,0,0,0,0,0,0.2959,0.2986,0.2985,0.2994,0.3041,0.3088,0.3096,0.312,0.3122,0.3146,0.3157,0.3149,0.3204,0.3186,0.3192,0.3227,0.3264,0.3267,0.327,0.3323,0.3332,0.334,0,0,0,0,0,0,0.2955,0.2991,0.2991,0.3026,0.3059,0.3092,0.3124,0.3136,0.3166,0.3167,0.317,0.3174,0.3221,0.3216,0.3197,0.3264,0.3232,0.3237,0.327,0.3279,0.3286,0.3341,0.3175,0,0,0,0,0,0.2959,0.2985,0.302,0.3046,0.3069,0.3098,0.3125,0.3137,0.3164,0.3178,0.3195,0.3212,0.3237,0.3251,0.3271,0.3309,0.3343,0.3334,0.3341,0.3347,0.3396,0.3464,0.3482,0.3282,0.3282,0.3282,0,0,0.2959,0.2987,0.2998,0.3047,0.3075,0.3115,0.3113,0.3158,0.3191,0.3177,0.3232,0.3243,0.3255,0.3296,0.3317,0.3297,0.3419,0.3351,0.3356,0.3403,0.3469,0.3489,0.3507,0.3285,0.3284,0.3284,0,0,0.2973,0.3003,0.3029,0.3065,0.3114,0.314,0.3159,0.3203,0.3228,0.3273,0.3275,0.3319,0.3343,0.3373,0.3385,0.3449,0.3458,0.3438,0.3518,0.3582,0.36,0.3616,0.3673,0.3694,0.3437,0.3437,0.3437,0,0.2971,0.3008,0.3045,0.3084,0.3122,0.3156,0.3196,0.3232,0.328,0.3315,0.3296,0.338,0.339,0.3463,0.3489,0.347,0.3503,0.348,0.3594,0.3611,0.3626,0.3681,0.3703,0.344,0.344,0.344,0.3439,0,0.3004,0.3039,0.3066,0.3123,0.317,0.3215,0.3268,0.331,0.334,0.3381,0.3463,0.3482,0.3536,0.3539,0.354,0.3652,0.3638,0.3597,0.3575,0.365,0.3702,0.3724,0.3445,0.3444,0.3443,0.3442,0,0,0.2976,0.3068,0.3076,0.3108,0.3197,0.3234,0.3305,0.3388,0.3447,0.3495,0.3587,0.3642,0.367,0.3691,0.3692,0.3761,0.3892,0.3739,0.3741,0.3803,0.4042,0.3913,0.3925,0.3866,0.387,0.3874,0.4029,0,0.2988,0.3064,0.311,0.318,0.3231,0.3289,0.3364,0.3442,0.3505,0.3602,0.3661,0.3752,0.3719,0.3761,0.3823,0.3887,0.3957,0.3855,0.3956,0.396,0.3842,0.3948,0.3647,0.375,0.4051,0.4055,0.4057,0,0.2998,0.3058,0.3129,0.3227,0.3256,0.3302,0.3425,0.3496,0.3639,0.3694,0.3789,0.3849,0.3985,0.3933,0.4088,0.4023,0.4059,0.4093,0.4098,0.3986,0.3874,0.3726,0.3779,0.4094,0.4091,0.4089,0.4086,0,0.2967,0.3062,0.312,0.3154,0.3276,0.3317,0.3394,0.3529,0.3622,0.378,0.3873,0.3993,0.4095,0.4159,0.4219,0.4179,0.4375,0.4309,0.4228,0.4218,0.399,0.3952,0.4436,0.4436,0.4435,0.4435,0.4434,0,0.2964,0.3006,0.3107,0.3139,0.3233,0.3319,0.3438,0.352,0.3686,0.3812,0.3932,0.404,0.4168,0.4273,0.4289,0.4328,0.442,0.4295,0.4268,0.3997,0.396,0.4273,0.4252,0.4441,0.4439,0.4438,0.4437,0,0.2929,0.2979,0.305,0.3171,0.3218,0.3288,0.3471,0.3567,0.3715,0.3882,0.3956,0.4149,0.4267,0.4345,0.4472,0.4422,0.4463,0.4442,0.4114,0.4046,0.4253,0.4234,0.4406,0.4403,0.4401,0.4399,0.4397,0,0.2922,0.296,0.3075,0.3108,0.316,0.3288,0.3396,0.3571,0.3659,0.3916,0.3982,0.4189,0.425,0.4384,0.4359,0.437,0.443,0.4095,0.3965,0.4304,0.426,0.4244,0.4228,0.3689,0.3682,0.3676,0.3671,0,0.2919,0.2948,0.3003,0.3082,0.3163,0.3284,0.3417,0.3487,0.3685,0.379,0.3913,0.4,0.4165,0.404,0.4077,0.4034,0.4063,0.3972,0.4444,0.3723,0.3635,0.3589,0.3596,0.3618,0.3623,0.3627,0.363,0.3632,0.2892,0.2931,0.2971,0.3039,0.3129,0.3196,0.3217,0.3328,0.3408,0.3477,0.3677,0.3681,0.3785,0.3666,0.3574,0.3535,0.3797,0.3642,0.3658,0.3682,0.355,0.346,0.3388,0.3391,0.3395,0.3398,0.34,0,0.2801,0.2861,0.2929,0.2948,0.2959,0.3074,0.3166,0.3116,0.308,0.322,0.3247,0.3029,0.299,0.3091,0.2964,0.2988,0.2944,0.2865,0.2782,0.2839,0.289,0.2714,0.2332,0.2328,0.2324,0.2321,0,0,0.2769,0.2732,0.2783,0.2736,0.2775,0.2723,0.2726,0.2676,0.27,0.2608,0.2595,0.2827,0.3005,0.2605,0.2587,0.2437,0.2606,0.2349,0.3219,0.3178,0.3223,0.3366,0.3165,0,0,0,0,0]},{"header":{"parameterUnit":"m.s-1","parameterCategory":2,"la1":30.2991,"la2":30.254,"lo1":-89.0895,"lo2":-89.0444,"dy":0.0017,"dx":0.0017,"nx":28,"ny":28,"refTime":"2025-06-23T03:00:00:Z","depth":"2","parameterNumber":3,"parameterNumberName":"V-component_of_CURRENTS"},"data":[0,0,0,0,0,0,0,0,0,0,0,0,0,0,0,0,0,0,0,0,0,0,0,0,0,0,0,0,0,0,0,0,0,0,0,0,0,0,0,0,0,0,0,0,0,0,0,0,0,0,0,0,0,0,0,0,0,0,-0.0005,-0.0005,0,-0.0062,-0.0062,-0.0063,-0.0108,-0.0108,-0.0108,-0.0108,-0.0191,-0.0192,-0.0194,0,0,0,0,0,0,0,0,0,0,0,0,0,0.0007,0.0008,-0.0005,-0.0005,-0.0006,-0.0062,-0.0062,-0.0063,-0.0107,-0.0108,-0.0108,-0.0108,-0.019,-0.0192,-0.0195,0,0,0,0,0,0,0,0,0,0,0,0,0,-0.002,0.0008,-0.0004,-0.0033,-0.0036,-0.0061,-0.0063,-0.0064,-0.0107,-0.0108,-0.0108,-0.0109,-0.0189,-0.0192,-0.0195,-0.0205,0,0,-0.0204,-0.0205,0,0,0,0,0,0,0,0,-0.0018,-0.0021,-0.0028,-0.0031,-0.0034,-0.0076,-0.0088,-0.0112,-0.0107,-0.0082,-0.0108,-0.0109,-0.0153,-0.0159,-0.0171,-0.0209,-0.0212,-0.0204,-0.0206,-0.0207,-0.0208,0,0,0,0,0,0,0,-0.0016,-0.0019,-0.0029,-0.0029,-0.0033,-0.0063,-0.0067,-0.0093,-0.0117,-0.0084,-0.0087,-0.0091,-0.0155,-0.0168,-0.0173,-0.0214,-0.0204,-0.0207,-0.0208,-0.021,-0.0267,-0.0266,0,0,0,0,0,0,-0.0002,-0.0017,-0.0027,-0.0031,-0.0025,-0.0063,-0.0067,-0.0064,-0.0116,-0.0124,-0.009,-0.0093,-0.0163,-0.017,-0.0177,-0.0173,-0.0207,-0.021,-0.0211,-0.0267,-0.0267,-0.0266,0,0,0,0,0,0,-0.0002,-0.0002,-0.0025,-0.0024,-0.0029,-0.0062,-0.0058,-0.0065,-0.0075,-0.012,-0.0128,-0.0093,-0.0164,-0.0172,-0.0187,-0.0177,-0.0211,-0.0214,-0.0267,-0.0267,-0.0266,-0.0178,0,0,0,0,0,0,-0.0001,-0.0001,0.0004,-0.0023,-0.0028,-0.0028,-0.0058,-0.0066,-0.0076,-0.0079,-0.0125,-0.0133,-0.0165,-0.0182,-0.019,-0.0182,-0.0216,-0.0267,-0.0267,-0.0266,-0.0181,-0.0174,-0.0169,0,0,0,0,0,-0.0,0.0018,0.0005,0.0004,-0.0018,-0.0027,-0.0033,-0.006,-0.0075,-0.0072,-0.01,-0.0131,-0.0185,-0.0184,-0.0193,-0.0186,-0.0268,-0.0267,-0.0267,-0.0184,-0.0176,-0.0169,0,0,0,0,0,0,0.0028,0.0015,-0.0,0.0013,-0.0003,-0.0034,-0.0033,-0.0053,-0.0074,-0.0077,-0.0122,-0.0132,-0.0144,-0.0177,-0.0174,-0.0203,-0.0235,-0.0236,-0.0169,-0.0162,-0.0156,-0.0125,-0.0218,0,0,0,0,0,0.0037,0.0046,0.0024,0.0034,0.0029,-0.0003,-0.0011,-0.0027,-0.0049,-0.0059,-0.0091,-0.0125,-0.015,-0.0163,-0.0193,-0.0203,-0.0233,-0.0208,-0.0202,-0.0196,-0.0179,-0.021,-0.0204,-0.0265,-0.0265,-0.0265,0,0,0.0051,0.0045,0.0049,0.004,0.0024,0.0031,-0.0008,-0.0012,-0.0005,-0.0064,-0.0066,-0.0104,-0.0148,-0.0159,-0.0168,-0.0183,-0.0198,-0.0196,-0.019,-0.0176,-0.0209,-0.0203,-0.0197,-0.0264,-0.0264,-0.0264,0,0,0.0088,0.0077,0.0097,0.0089,0.0074,0.0058,0.0061,0.0035,0.0023,0.0015,-0.0025,-0.0047,-0.0093,-0.0114,-0.0133,-0.0111,-0.0164,-0.0133,-0.0075,-0.0105,-0.01,-0.0096,-0.0133,-0.0133,-0.013,-0.0129,-0.0129,0,0.0104,0.0128,0.01,0.0117,0.0123,0.0077,0.0103,0.0084,0.0056,0.0057,0.0026,-0.0026,-0.0067,-0.0068,-0.0065,-0.0095,-0.0125,-0.0096,-0.0095,-0.0092,-0.0089,-0.0128,-0.0129,-0.0125,-0.0126,-0.0126,-0.0126,0,0.0154,0.0172,0.0184,0.0193,0.0193,0.0208,0.0184,0.0178,0.0153,0.0134,0.0122,0.0065,0.0038,0.0013,-0.002,-0.0019,-0.0052,-0.0082,-0.0107,-0.0077,-0.0121,-0.0124,-0.0119,-0.012,-0.0122,-0.0123,0,0,0.02,0.0219,0.0223,0.0248,0.0239,0.0251,0.0259,0.0264,0.0284,0.0234,0.0259,0.0196,0.0161,0.0137,0.0086,0.0057,0.004,0.0002,-0.0002,-0.0022,-0.0032,-0.0088,-0.0097,0.0009,0.001,0.001,-0.0073,0,0.025,0.0309,0.03,0.0356,0.0387,0.0358,0.038,0.0374,0.0351,0.036,0.0298,0.0301,0.0209,0.0208,0.0158,0.008,0.0039,0.0065,-0.0069,-0.0073,-0.0116,-0.01,-0.0061,-0.0134,-0.0076,-0.0077,-0.0077,0,0.0303,0.0341,0.0406,0.0458,0.047,0.0491,0.0524,0.0544,0.0532,0.0516,0.0485,0.0438,0.0396,0.0317,0.0181,0.0201,0.0094,0.0019,0.0013,-0.0067,-0.0133,-0.0156,-0.0142,-0.0082,-0.0081,-0.0081,-0.0081,0,0.0357,0.0417,0.0478,0.0492,0.0535,0.0561,0.059,0.0592,0.0638,0.0631,0.0658,0.0569,0.0561,0.041,0.0226,0.0214,0.007,0.0032,-0.0124,-0.013,-0.0136,-0.0143,-0.0062,-0.0062,-0.0061,-0.0061,-0.0061,0,0.0415,0.0465,0.051,0.0543,0.0636,0.0639,0.0729,0.0733,0.0774,0.0848,0.0756,0.0781,0.0587,0.0472,0.0277,0.0063,0.0098,-0.0105,-0.0149,-0.0107,-0.011,-0.0095,-0.0098,-0.0064,-0.0064,-0.0063,-0.0062,0,0.046,0.0482,0.0559,0.0625,0.066,0.0726,0.084,0.091,0.0927,0.102,0.1038,0.0963,0.0808,0.0575,0.0343,0.0154,-0.0056,-0.0146,-0.0091,-0.0128,-0.0247,-0.0245,-0.0306,-0.0308,-0.0311,-0.0312,-0.0314,0,0.0482,0.0526,0.0628,0.0684,0.0717,0.0826,0.0918,0.0983,0.1061,0.1125,0.1179,0.108,0.0997,0.0619,0.0284,-0.006,-0.0099,-0.0242,-0.0262,-0.0232,-0.027,-0.0264,-0.0258,-0.0239,-0.024,-0.0241,-0.0241,0,0.0524,0.0555,0.0625,0.0754,0.0851,0.0983,0.1107,0.1191,0.1277,0.1345,0.139,0.1339,0.1007,0.0675,0.0214,-0.0019,-0.0187,-0.0267,-0.0236,-0.0189,-0.0178,-0.0212,-0.0207,-0.0247,-0.0247,-0.0246,-0.0246,-0.0246,0.0546,0.0609,0.0697,0.0818,0.0949,0.1093,0.1198,0.1329,0.146,0.1559,0.1513,0.1458,0.1109,0.0523,0.013,-0.0252,-0.024,-0.0365,-0.0359,-0.0353,-0.0336,-0.033,-0.0425,-0.0425,-0.0425,-0.0426,-0.0426,0,0.0556,0.0631,0.0754,0.0892,0.1034,0.1103,0.1298,0.14,0.1544,0.1655,0.1676,0.1333,0.097,0.0578,0.0015,-0.0344,-0.0352,-0.0455,-0.0372,-0.0364,-0.0358,-0.0338,-0.0429,-0.043,-0.0431,-0.0432,0,0,0.0568,0.0655,0.0728,0.0918,0.1034,0.1215,0.132,0.148,0.1601,0.168,0.1683,0.1604,0.1128,0.0717,0.0228,-0.0083,-0.0139,-0.0154,-0.0114,0.0049,0.006,-0.0274,-0.0232,0,0,0,0,0]}],[{"header":{"parameterUnit":"m.s-1","parameterCategory":2,"la1":30.2991,"la2":30.254,"lo1":-89.0895,"lo2":-89.0444,"dy":0.0017,"dx":0.0017,"nx":28,"ny":28,"refTime":"2025-06-23T03:00:00:Z","depth":"4","parameterNumber":2,"parameterNumberName":"U-component_of_CURRENTS"},"data":[0,0,0,0,0,0,0,0,0,0,0,0,0,0,0,0,0,0,0,0,0,0,0,0,0,0,0,0,0,0,0,0,0,0,0,0,0,0,0,0,0,0,0,0,0,0,0,0,0,0,0,0,0,0,0,0,0,0,0.1836,0.1837,0,0.1902,0.1902,0.1903,0.1951,0.1951,0.1952,0.1953,0.2,0.2,0.2001,0,0,0,0,0,0,0,0,0,0,0,0,0,0.1732,0.1734,0.1836,0.1837,0.1838,0.1902,0.1902,0.1903,0.1951,0.1952,0.1952,0.1953,0.1999,0.2,0.2001,0,0,0,0,0,0,0,0,0,0,0,0,0,0.1783,0.1734,0.1836,0.1872,0.1876,0.1902,0.1902,0.1903,0.195,0.1952,0.1953,0.1954,0.1999,0.2,0.2001,0.1985,0,0,0.2004,0.2004,0,0,0,0,0,0,0,0,0.178,0.1786,0.1866,0.187,0.1874,0.1922,0.1883,0.1931,0.195,0.1919,0.1953,0.1954,0.1973,0.1976,0.1982,0.1987,0.1989,0.2004,0.2004,0.2005,0.2005,0,0,0,0,0,0,0,0.1776,0.1783,0.1859,0.1867,0.1872,0.1879,0.1887,0.1892,0.1936,0.1922,0.1926,0.1938,0.1975,0.1981,0.1983,0.199,0.2004,0.2004,0.2005,0.2005,0.2114,0.2116,0,0,0,0,0,0,0.1775,0.178,0.1857,0.1861,0.1832,0.188,0.1889,0.1903,0.1937,0.1944,0.1937,0.194,0.1979,0.1982,0.1985,0.208,0.2005,0.2005,0.2006,0.2111,0.2114,0.2117,0,0,0,0,0,0,0.1772,0.1781,0.1854,0.1824,0.1835,0.1881,0.1896,0.1904,0.195,0.195,0.1956,0.1981,0.198,0.1984,0.203,0.2078,0.2006,0.2007,0.2109,0.2112,0.2116,0.2198,0,0,0,0,0,0,0.1769,0.178,0.1805,0.1824,0.1837,0.1891,0.1896,0.1904,0.1955,0.1961,0.1988,0.1992,0.1981,0.2029,0.2031,0.2078,0.2007,0.2106,0.211,0.2114,0.2192,0.2204,0.2214,0,0,0,0,0,0.1765,0.1788,0.1806,0.1816,0.1865,0.1893,0.19,0.1933,0.1957,0.1979,0.2007,0.1993,0.2058,0.2031,0.2033,0.2081,0.2104,0.2109,0.2114,0.2187,0.2201,0.2213,0,0,0,0,0,0,0.1755,0.1796,0.1816,0.1851,0.1883,0.1903,0.1934,0.1956,0.1996,0.2016,0.2015,0.202,0.2083,0.207,0.204,0.2128,0.2082,0.2088,0.2137,0.215,0.2161,0.2178,0.2008,0,0,0,0,0,0.1765,0.1798,0.183,0.1863,0.1883,0.1918,0.1942,0.1966,0.1996,0.2018,0.204,0.2068,0.2098,0.2116,0.2135,0.2174,0.2181,0.221,0.2221,0.223,0.2248,0.2312,0.2331,0.2134,0.2134,0.2134,0,0,0.1767,0.1799,0.1817,0.1865,0.1895,0.1928,0.1935,0.1984,0.2024,0.2014,0.2087,0.2109,0.212,0.2172,0.2199,0.2171,0.2288,0.2237,0.2244,0.2257,0.232,0.2339,0.2356,0.2138,0.2137,0.2137,0,0,0.1779,0.1823,0.1851,0.1882,0.1939,0.1962,0.1986,0.2032,0.2072,0.2129,0.2147,0.2201,0.2235,0.226,0.2273,0.2354,0.2347,0.2368,0.2431,0.2494,0.251,0.2525,0.2546,0.2562,0.2368,0.2368,0.2368,0,0.1785,0.1827,0.1863,0.1898,0.1935,0.1983,0.202,0.2061,0.2121,0.2165,0.2166,0.2273,0.2277,0.2356,0.2387,0.2379,0.2405,0.2377,0.2508,0.2523,0.2537,0.2555,0.2571,0.2372,0.2372,0.2371,0.2371,0,0.1806,0.1854,0.1876,0.194,0.1981,0.2026,0.2082,0.2143,0.22,0.2242,0.235,0.2373,0.2438,0.2452,0.2442,0.2552,0.2535,0.2517,0.2473,0.2561,0.2574,0.259,0.2379,0.2377,0.2376,0.2375,0,0,0.1776,0.1873,0.1883,0.1926,0.2014,0.2044,0.213,0.2216,0.2289,0.2362,0.2456,0.2524,0.2564,0.2583,0.2597,0.265,0.2754,0.2635,0.2636,0.2651,0.2884,0.2697,0.2695,0.2772,0.2776,0.2779,0.2848,0,0.1787,0.1853,0.1907,0.1984,0.2024,0.2106,0.2181,0.227,0.2351,0.2451,0.2522,0.2611,0.2606,0.2655,0.2715,0.2753,0.2804,0.2736,0.28,0.2801,0.2621,0.271,0.2791,0.2859,0.2863,0.2865,0.2867,0,0.1784,0.1835,0.1905,0.202,0.2049,0.211,0.225,0.2329,0.2473,0.254,0.2653,0.2708,0.2821,0.2792,0.2922,0.2888,0.2903,0.2916,0.2919,0.2729,0.2644,0.2757,0.2896,0.2893,0.2891,0.2889,0.2888,0,0.1724,0.1835,0.1897,0.1932,0.2063,0.2131,0.2222,0.2364,0.2445,0.2615,0.2687,0.2823,0.2905,0.2971,0.3007,0.2988,0.3121,0.3083,0.2927,0.2912,0.3021,0.3005,0.3174,0.3173,0.3173,0.3173,0.3173,0,0.1697,0.1749,0.1883,0.1908,0.2009,0.2119,0.2243,0.2351,0.2506,0.26,0.2743,0.2824,0.2963,0.3043,0.3056,0.3038,0.3165,0.2957,0.2931,0.3051,0.3037,0.3031,0.3014,0.3176,0.3175,0.3175,0.3174,0,0.1609,0.1698,0.1776,0.1923,0.1979,0.2056,0.2239,0.2309,0.249,0.2616,0.2676,0.2863,0.2971,0.3058,0.3158,0.3079,0.3083,0.3039,0.3158,0.3134,0.2818,0.2805,0.2875,0.2869,0.2864,0.286,0.2857,0,0.1564,0.1593,0.1756,0.1804,0.1878,0.201,0.2082,0.2275,0.2348,0.2608,0.2641,0.2823,0.292,0.2913,0.3023,0.3037,0.3001,0.2974,0.2903,0.2827,0.2795,0.2789,0.2782,0.2849,0.2848,0.2847,0.2845,0,0.1465,0.1539,0.1599,0.1701,0.1786,0.1878,0.2007,0.2043,0.2261,0.2444,0.2544,0.2615,0.2729,0.2802,0.2833,0.2837,0.2978,0.2923,0.2932,0.2865,0.2796,0.2768,0.2767,0.2828,0.2831,0.2833,0.2833,0,0.1394,0.1408,0.1493,0.1575,0.1671,0.171,0.1806,0.1896,0.2001,0.2281,0.2309,0.2512,0.2695,0.2699,0.2729,0.2722,0.2681,0.2584,0.261,0.263,0.2519,0.2394,0.2297,0,0,0,0,0,0.131,0.13,0.1355,0.143,0.1518,0.1583,0.1728,0.1826,0.2035,0.2037,0.2171,0.2264,0.2353,0.2464,0.2407,0.2617,0.268,0.2539,0.2577,0.2735,0.2755,0.2647,0,0,0,0,0,0,0.1249,0.1281,0.1298,0.1287,0.1313,0.1392,0.1478,0.1624,0.1648,0.1876,0.1936,0.212,0.2235,0.2355,0.2361,0.2391,0.2366,0.267,0.2664,0.2724,0.2742,0.2757,0.2654,0,0,0,0,0]},{"header":{"parameterUnit":"m.s-1","parameterCategory":2,"la1":30.2991,"la2":30.254,"lo1":-89.0895,"lo2":-89.0444,"dy":0.0017,"dx":0.0017,"nx":28,"ny":28,"refTime":"2025-06-23T03:00:00:Z","depth":"4","parameterNumber":3,"parameterNumberName":"V-component_of_CURRENTS"},"data":[0,0,0,0,0,0,0,0,0,0,0,0,0,0,0,0,0,0,0,0,0,0,0,0,0,0,0,0,0,0,0,0,0,0,0,0,0,0,0,0,0,0,0,0,0,0,0,0,0,0,0,0,0,0,0,0,0,0,0.0022,0.0022,0,-0.0013,-0.0013,-0.0014,-0.0046,-0.0046,-0.0047,-0.0047,-0.0113,-0.0115,-0.0116,0,0,0,0,0,0,0,0,0,0,0,0,0,0.0018,0.0019,0.0022,0.0021,0.0021,-0.0012,-0.0013,-0.0014,-0.0046,-0.0046,-0.0047,-0.0047,-0.0113,-0.0114,-0.0116,0,0,0,0,0,0,0,0,0,0,0,0,0,0.0005,0.0019,0.0022,0.0002,-0.0,-0.0012,-0.0013,-0.0014,-0.0046,-0.0047,-0.0047,-0.0047,-0.0112,-0.0114,-0.0116,-0.0121,0,0,-0.0123,-0.0124,0,0,0,0,0,0,0,0,0.0005,0.0005,0.0005,0.0003,0.0001,-0.0024,-0.0038,-0.0051,-0.0046,-0.003,-0.0047,-0.0048,-0.0085,-0.009,-0.0096,-0.0124,-0.0127,-0.0123,-0.0125,-0.0126,-0.0126,0,0,0,0,0,0,0,0.0006,0.0006,0.0007,0.0005,0.0002,-0.0019,-0.0022,-0.0041,-0.0056,-0.0031,-0.0034,-0.0035,-0.0087,-0.0094,-0.0098,-0.0128,-0.0123,-0.0125,-0.0127,-0.0128,-0.0174,-0.0174,0,0,0,0,0,0,0.0016,0.0007,0.0008,0.0006,0.0004,-0.0019,-0.0021,-0.0017,-0.0055,-0.0061,-0.0035,-0.0037,-0.009,-0.0096,-0.0101,-0.0104,-0.0126,-0.0128,-0.0129,-0.0174,-0.0174,-0.0174,0,0,0,0,0,0,0.0016,0.0017,0.0009,0.0006,0.0004,-0.0018,-0.0013,-0.0017,-0.0024,-0.0057,-0.0064,-0.0036,-0.0091,-0.0098,-0.0109,-0.0107,-0.0129,-0.0131,-0.0174,-0.0174,-0.0174,-0.0113,0,0,0,0,0,0,0.0016,0.0017,0.0022,0.0007,0.0004,0.0009,-0.0012,-0.0018,-0.0024,-0.0026,-0.0061,-0.0068,-0.0092,-0.0105,-0.0111,-0.011,-0.0132,-0.0174,-0.0174,-0.0174,-0.0115,-0.0111,-0.0107,0,0,0,0,0,0.0016,0.0032,0.0023,0.0023,0.0013,0.001,0.0007,-0.0012,-0.0023,-0.0021,-0.0041,-0.0067,-0.0109,-0.0106,-0.0114,-0.0113,-0.0174,-0.0174,-0.0174,-0.0117,-0.0112,-0.0107,0,0,0,0,0,0,0.0034,0.0029,0.002,0.0032,0.0023,0.0005,0.0006,-0.0007,-0.0021,-0.0025,-0.0058,-0.0066,-0.0079,-0.0103,-0.0099,-0.0128,-0.0149,-0.015,-0.0103,-0.0099,-0.0095,-0.0083,-0.0134,0,0,0,0,0,0.0041,0.005,0.0038,0.0047,0.0045,0.0026,0.0021,0.001,-0.0004,-0.0011,-0.0035,-0.0062,-0.0083,-0.0095,-0.0118,-0.0127,-0.0163,-0.0135,-0.0131,-0.0127,-0.0123,-0.017,-0.017,-0.0173,-0.0173,-0.0173,0,0,0.005,0.0048,0.0053,0.0051,0.0042,0.0049,0.0022,0.0022,0.0026,-0.0016,-0.0019,-0.0048,-0.0083,-0.0094,-0.0103,-0.0113,-0.0146,-0.0127,-0.0123,-0.0122,-0.017,-0.017,-0.017,-0.0173,-0.0173,-0.0173,0,0,0.0076,0.0072,0.0087,0.0085,0.0077,0.0068,0.0071,0.0055,0.0045,0.004,0.0009,-0.0014,-0.0044,-0.0069,-0.0085,-0.0073,-0.0123,-0.0086,-0.0055,-0.01,-0.01,-0.0101,-0.0149,-0.0154,-0.0083,-0.0083,-0.0083,0,0.0086,0.0105,0.009,0.0104,0.0109,0.0081,0.01,0.0087,0.0069,0.0063,0.0047,-0.0003,-0.0033,-0.005,-0.0047,-0.0064,-0.0099,-0.0067,-0.0094,-0.0096,-0.0097,-0.0146,-0.0153,-0.008,-0.0081,-0.0081,-0.0081,0,0.0121,0.0136,0.0146,0.0155,0.0158,0.0169,0.0155,0.015,0.0133,0.0115,0.0092,0.005,0.002,0.0003,-0.0016,-0.0041,-0.0066,-0.0083,-0.0103,-0.0093,-0.0146,-0.0153,-0.0076,-0.0077,-0.0078,-0.0079,0,0,0.0147,0.0167,0.0171,0.0186,0.0188,0.0196,0.0203,0.02,0.0203,0.0168,0.0164,0.0119,0.0087,0.0066,0.003,-0.001,-0.0052,-0.0045,-0.0048,-0.0086,-0.0156,-0.0156,-0.0166,-0.0074,-0.0075,-0.0076,-0.0189,0,0.0178,0.0218,0.022,0.0258,0.0278,0.0264,0.0276,0.0266,0.0246,0.0233,0.0176,0.0159,0.0114,0.0102,0.0054,-0.0022,-0.007,-0.002,-0.0166,-0.0171,-0.0167,-0.0173,-0.0079,-0.0195,-0.0197,-0.0199,-0.02,0,0.0209,0.0234,0.0279,0.0313,0.0322,0.034,0.0354,0.0364,0.0334,0.0315,0.0276,0.023,0.0172,0.0133,-0.0002,0.0032,-0.0055,-0.0122,-0.0129,-0.0154,-0.0185,-0.021,-0.0214,-0.0213,-0.0212,-0.0211,-0.021,0,0.0229,0.0275,0.0315,0.0326,0.0358,0.0377,0.0396,0.0386,0.0401,0.0369,0.0365,0.0281,0.0246,0.0127,-0.0011,-0.0008,-0.0168,-0.0184,-0.0272,-0.0273,-0.0266,-0.0264,-0.0286,-0.0285,-0.0285,-0.0285,-0.0285,0,0.0257,0.0288,0.033,0.035,0.0404,0.0416,0.0461,0.0459,0.0465,0.0486,0.0414,0.0401,0.0243,0.0135,0.0001,-0.0159,-0.0166,-0.0269,-0.0301,-0.0239,-0.0233,-0.0272,-0.0269,-0.0289,-0.0288,-0.0287,-0.0287,0,0.0261,0.0289,0.0337,0.0388,0.0413,0.0449,0.0516,0.0546,0.0545,0.0569,0.0565,0.0483,0.0349,0.0176,-0.0022,-0.0132,-0.0291,-0.035,-0.0272,-0.0298,-0.0371,-0.0364,-0.0455,-0.0456,-0.0456,-0.0457,-0.0458,0,0.0263,0.0288,0.0363,0.0404,0.0431,0.0495,0.0546,0.0579,0.0616,0.062,0.0634,0.0525,0.0446,0.0174,-0.0018,-0.0283,-0.0319,-0.0409,-0.0388,-0.0366,-0.0389,-0.038,-0.0371,-0.0459,-0.0459,-0.0459,-0.046,0,0.0264,0.029,0.0335,0.0429,0.0493,0.0568,0.0644,0.0677,0.0719,0.0713,0.0695,0.0562,0.0409,0.0192,-0.0019,-0.0209,-0.0352,-0.0417,-0.0417,-0.0398,-0.0372,-0.0392,-0.0383,-0.0462,-0.0462,-0.0462,-0.0461,0,0.0269,0.0299,0.0372,0.0457,0.054,0.0629,0.0663,0.0721,0.0761,0.0767,0.0755,0.0597,0.0502,0.0229,0.0035,-0.0152,-0.0198,-0.0258,-0.0267,-0.0266,-0.0178,-0.0115,-0.0154,0,0,0,0,0,0.0281,0.0331,0.0402,0.0504,0.0584,0.0644,0.073,0.076,0.0796,0.0797,0.0783,0.0645,0.0381,0.0267,0.0081,-0.0001,-0.0249,-0.0227,-0.0327,-0.0477,-0.0474,-0.0402,0,0,0,0,0,0,0.0294,0.0362,0.0406,0.053,0.0603,0.0707,0.0765,0.0789,0.0793,0.0795,0.0662,0.0596,0.0337,0.0491,0.0079,0.002,-0.007,-0.0352,-0.0356,-0.0479,-0.0476,-0.0474,-0.0399,0,0,0,0,0]}]]